Arctic - Eastern Arctic: Past 24 Hour Conditions

 

Repulse Bay Airport

06:00 AM CST 24 November 2014
This table is a summary of hourly weather conditions for the past 24 hours.
Date / Time
(CST)
Wind(knots) Conditions Visibility(km) Pressure(kPa) Air tempC) Relative humidity(%) Dew pointC) Wind Chill
24 November 2014
6:00 W 6 N/A N/A 100.3 -24 75 -27 -32
5:00 NNW 16 N/A N/A 100.3 -24 74 -28 -38
4:00 NW 11 N/A N/A 100.3 -25 74 -28 -36
3:00 NNW 13 gust 19 N/A N/A 100.3 -25 73 -28 -38
2:00 NNW 9 N/A N/A 100.3 -24 74 -27 -35
1:00 N 18 N/A N/A 100.2 -24 74 -27 -38
0:00 NNW 18 gust 26 N/A N/A 100.1 -24 76 -27 -38
23 November 2014
23:00 NNW 16 gust 22 N/A N/A 100.1 -24 75 -27 -38
22:00 NNW 20 Ice Crystals 8 100.1 -24 75 -27 -39
21:00 NNW 19 Ice Crystals 8 100.0 -24 74 -27 -39
20:00 NNW 18 gust 23 N/A N/A 100.1 -23 75 -26 -37
19:00 NNW 21 gust 27 N/A N/A 100.0 -23 75 -26 -38
18:00 NNW 14 Light Snow 10 100.1 -23 75 -27 -36
17:00 NNW 13 gust 21 Light Snow 8 100.1 -24 75 -27 -36
16:00 NNW 13 gust 19 Drifting Snow 16 100.1 -24 74 -28 -37
15:00 N 14 gust 20 Drifting Snow 16 100.0 -25 74 -28 -38
14:00 N 16 Drifting Snow 18 100.0 -25 74 -28 -38
13:00 NNW 14 gust 20 Drifting Snow 19 100.0 -24 74 -27 -37
12:00 NNW 12 gust 18 Light Snow 18 99.9 -24 73 -28 -36
11:00 NNW 12 gust 18 Light Snow 40 100.0 -23 73 -27 -36
10:00 NNW 12 Partly Cloudy 40 100.0 -25 74 -28 -37
9:00 NNW 15 Drifting Snow 40 99.9 -26 74 -29 -39
8:00 NNW 8 N/A N/A 100.0 -27 74 -30 -37
7:00 NNW 11 N/A N/A 100.0 -26 73 -30 -38
6:00 NNW 11 N/A N/A 100.0 -25 73 -28 -37
 
Map of Arctic - Eastern Arctic marine weather areas Baker Lake Airport Chesterfield Inlet Airport Coral Harbour Airport Gjoa Haven Airport Kugaaruk Airport Rankin Inlet Airport Shepherd Bay Airport Whale Cove Airport Arctic Bay Brevoort Island Qikiqtarjuaq Airport Cape Dorset Airport Cape Dyer Cape Hooper Clyde Airport Grise Fiord Airport Hall Beach Airport Igloolik Airport Iqaluit Airport Longstaff Bluff Pangnirtung Airport Pond Inlet Airport Repulse Bay Airport Resolute Airport Resolution Island Rowley Island Airport Taloyoak Airport Wager Bay Akulivik Airport Ivujivik Airport Puvirnituq Airport Kangiqsujuaq Airport Kangirsuk Airport Quaqtaq Airport Tasiujaq Airport Cape Kakkiviak Cape Kiglapait Nain Airport Saglek Cape Mercy Kimmirut Airport Aupaluk Airport Salluit Airport Kangiqsualujjuaq Airport Fort Ross
Legend: buoyBuoy land stationLand Station